EW5236 Weather Reports


Display with metric or nautical units.
time (UTC)temp
F
wind
direction
speed
MPH
gust
MPH
rain 1hr
in
rain 24hr
in
rain mn
in
humidity
%
barometer
mb
20260502231509 59 93 0.0 2.0 0.00 0.00 0.00 75 1014.3
20260502230008 59 93 0.0 1.0 0.00 0.00 0.00 74 1014.0
20260502224507 59 93 0.0 3.0 0.00 0.00 0.00 74 1013.7
20260502223004 59 94 0.0 1.0 0.00 0.00 0.00 73 1013.8
20260502221502 59 94 0.0 2.0 0.00 0.00 0.00 72 1013.8
20260502220100 60 94 0.0 2.0 0.00 0.00 0.00 71 1013.9
20260502214602 60 94 0.0 3.0 0.00 0.00 0.00 71 1014.1
20260502213055 60 95 0.0 8.0 0.00 0.00 0.00 71 1014.3
20260502211555 60 355 0.0 2.0 0.00 0.00 0.00 70 1014.5
20260502210054 60 355 0.0 3.0 0.00 0.00 0.00 70 1014.3
20260502204608 61 35 0.0 3.0 0.00 0.00 0.00 69 1014.5
20260502203112 61 306 0.0 1.0 0.00 0.00 0.00 68 1014.4
20260502201549 61 306 1.0 3.0 0.00 0.00 0.00 68 1014.6
20260502200049 62 306 0.0 2.0 0.00 0.00 0.00 67 1014.8
20260502194553 62 303 1.0 3.0 0.00 0.00 0.00 68 1014.9
20260502193049 63 302 1.0 3.0 0.00 0.00 0.00 68 1014.8
20260502191551 64 297 1.0 2.0 0.00 0.00 0.00 66 1014.7
20260502190046 65 297 0.0 3.0 0.00 0.00 0.00 63 1014.6
20260502184545 66 297 0.0 2.0 0.00 0.00 0.00 64 1014.7
20260502183045 67 292 1.0 3.0 0.00 0.00 0.00 64 1014.6
20260502181603 68 292 0.0 6.0 0.00 0.00 0.00 63 1014.7
20260502163035 74 340 3.0 11.0 0.00 0.00 0.00 60 1015.1
20260502161532 75 259 4.0 9.0 0.00 0.00 0.00 55 1015.2
20260502151516 74 277 2.0 7.0 0.00 0.00 0.00 56 1015.7
20260502123021 72 265 5.0 11.0 0.00 0.00 0.00 56 1017.1
20260502121515 72 276 5.0 12.0 0.00 0.00 0.00 57 1017.2
20260502114553 72 256 7.0 13.0 0.00 0.00 0.00 54 1017.4
20260502113051 73 263 4.0 13.0 0.00 0.00 0.00 50 1017.5
20260502111545 73 350 3.0 14.0 0.00 0.00 0.00 48 1017.5
20260502110045 74 250 5.0 10.0 0.00 0.00 0.00 43 1017.5
20260502104542 75 186 1.0 7.0 0.00 0.00 0.00 41 1017.6
20260502103038 74 120 2.0 8.0 0.00 0.00 0.00 42 1017.7
20260502101538 71 258 0.0 3.0 0.00 0.00 0.00 44 1017.8
20260502091522 66 260 1.0 8.0 0.00 0.00 0.00 51 1018.3
20260502071509 64 129 1.0 6.0 0.00 0.00 0.00 50 1018.3
20260502070007 63 144 2.0 4.0 0.00 0.00 0.00 50 1018.6
20260502064508 62 92 2.0 8.0 0.00 0.00 0.00 50 1018.7
20260502063100 61 220 0.0 3.0 0.00 0.00 0.00 51 1018.5
20260502061556 60 139 1.0 6.0 0.00 0.00 0.00 52 1018.3
20260502060051 59 184 2.0 4.0 0.00 0.00 0.00 53 1018.4
20260502054555 58 168 2.0 7.0 0.00 0.00 0.00 55 1018.4
20260502053042 57 142 1.0 6.0 0.00 0.00 0.00 56 1018.4
20260502051540 56 171 1.0 5.0 0.00 0.00 0.00 57 1018.5
20260502050033 55 150 1.0 6.0 0.00 0.00 0.00 58 1018.5
20260502044537 53 147 1.0 5.0 0.00 0.00 0.00 60 1018.5
20260502043028 53 145 1.0 5.0 0.00 0.00 0.00 60 1018.5
20260502041527 53 154 0.0 5.0 0.00 0.00 0.00 60 1018.6
20260502040037 53 143 0.0 3.0 0.00 0.00 0.00 60 1018.7
20260502034527 54 156 0.0 2.0 0.00 0.00 0.00 59 1018.8
20260502033021 54 198 0.0 6.0 0.00 0.00 0.00 59 1019.0
20260502031519 54 148 1.0 5.0 0.00 0.00 0.00 58 1019.0
20260502030017 54 159 1.0 7.0 0.00 0.00 0.00 58 1019.1
20260502024521 55 126 2.0 8.0 0.00 0.00 0.00 57 1019.1
20260502023014 55 128 2.0 7.0 0.00 0.00 0.00 57 1019.2
20260502021511 55 140 1.0 4.0 0.00 0.00 0.00 56 1019.3
20260502020009 55 152 1.0 5.0 0.00 0.00 0.00 56 1019.4
20260502014524 56 167 1.0 6.0 0.00 0.00 0.00 55 1019.5
20260502013005 56 175 1.0 5.0 0.00 0.00 0.00 54 1019.6
20260502011502 57 146 1.0 3.0 0.00 0.00 0.00 53 1019.7
20260502004604 58 166 0.0 6.0 0.00 0.00 0.00 52 1020.0
20260502003129 58 126 0.0 4.0 0.00 0.00 0.00 51 1020.2
20260502001627 59 155 1.0 5.0 0.00 0.00 0.00 50 1020.3
20260502000050 59 169 1.0 3.0 0.00 0.00 0.00 48 1020.4
20260501234548 60 130 1.0 4.0 0.00 0.00 0.00 47 1020.5
20260501233047 60 138 1.0 5.0 0.00 0.00 0.00 47 1020.5